Location: Nora Junction
(43.1400°N, 93.0163°W)
Time: 02:10:29
(UTC+00:00)

Cosmos 968 Rocket - Pass Details

Date: 18 November 2025
Orbit: 735 x 766 km, 74.0° (Epoch: 08 December)

Event Time Altitude Azimuth Distance (km) Brightness Sun altitude
Exits shadow 12:02:40 10° 321° (NW) 2,301 5.5 -12.1°
Maximum altitude 12:07:18 33° 259° (W) 1,266 4.2 -11.3°
Drops below altitude 10° 12:11:56 10° 196° (SSW) 2,295 6.0 -10.5°
Sets 12:14:29 0° 187° (S) 3,214 6.9 -10.1°
